User: anonymous   Login
Location: G�ppingen
(48.7089°N, 9.6563°E)
Time: 00:17:23
(UTC+01:00)
Language:

PRISM - Orbit

View from above orbital plane
View from above orbital plane
View from above satellite
View from above satellite

Ground track
Ground track

The orbit data is extracted from the following two-line orbital elements,

1 33493U 09002B   19079.73691074  .00000229  00000-0  25675-4 0  9998
2 33493  98.1233 357.2860 0016309 117.5358 242.7522 14.96549650551699
Epoch (UTC): 20 March 2019 17:41:09
Eccentricity: 0.0016309
inclination: 98.1233°
perigee height: 566 km
apogee height: 589 km
right ascension of ascending node: 357.2860°
argument of perigee: 117.5358°
revolutions per day: 14.96549650
mean anomaly at epoch: 242.7522°
orbit number at epoch: 55169

The dashed part of the orbit path shows where the satellite is in the earth's shadow,  

DLR